KK4WXG Weather Reports


time (UTC)temp
C
wind
direction
speed
KPH
gust
KPH
rain 1hr
cm
rain 24hr
cm
rain mn
cm
humidity
%
barometer
mb
20260510071510 8 230 3.2 4.8 0.00 0.00 0.00 96 1010.5
20260510071009 8 108 3.2 4.8 0.00 0.00 0.00 97 1010.5
20260510070505 8 78 4.8 8.0 0.00 0.00 0.00 97 1010.4
20260510070000 8 291 1.6 3.2 0.00 0.00 0.00 97 1010.6
20260510065458 8 213 0.0 3.2 0.00 0.00 0.00 97 1010.2
20260510064954 8 295 3.2 3.2 0.00 0.00 0.00 97 1010.2
20260510064451 8 277 1.6 3.2 0.00 0.00 0.00 96 1010.2
20260510063948 8 295 3.2 4.8 0.00 0.00 0.00 96 1010.2
20260510063444 8 72 0.0 1.6 0.00 0.00 0.00 96 1010.1
20260510062943 8 52 3.2 4.8 0.00 0.00 0.00 96 1010.4
20260510062442 8 86 3.2 4.8 0.00 0.00 0.00 96 1010.5
20260510061938 8 107 4.8 4.8 0.00 0.00 0.00 96 1010.6
20260510061435 8 128 3.2 4.8 0.00 0.00 0.00 95 1010.6
20260510060931 9 62 0.0 3.2 0.00 0.00 0.00 96 1010.3
20260510060428 9 246 0.0 1.6 0.00 0.00 0.00 96 1010.5
20260510055924 8 214 0.0 0.0 0.00 0.00 0.00 96 1010.2
20260510055420 9 199 0.0 3.2 0.00 0.00 0.00 95 1010.4
20260510054918 9 167 3.2 4.8 0.00 0.00 0.00 95 1010.3
20260510054414 9 69 4.8 4.8 0.00 0.00 0.00 95 1010.4
20260510053909 9 333 3.2 3.2 0.00 0.00 0.00 95 1010.2
20260510053405 9 209 0.0 3.2 0.00 0.00 0.00 95 1010.3
20260510052901 10 206 1.6 3.2 0.00 0.00 0.00 95 1010.2
20260510052357 9 132 0.0 1.6 0.00 0.00 0.00 95 1010.0
20260510051853 10 137 0.0 1.6 0.00 0.00 0.00 95 1010.0
20260510051350 10 89 0.0 3.2 0.00 0.00 0.00 94 1010.3
20260510050846 10 51 3.2 4.8 0.00 0.00 0.00 94 1010.2
20260510050343 10 2 1.6 3.2 0.00 0.00 0.00 94 1010.2
20260510045840 9 147 0.0 1.6 0.00 0.00 0.00 93 1010.1
20260510045337 10 174 1.6 3.2 0.00 0.00 0.00 92 1010.1
20260510044834 10 138 3.2 4.8 0.00 0.00 0.00 93 1010.2
20260510044331 10 117 0.0 1.6 0.00 0.00 0.00 92 1010.2
20260510043828 10 118 1.6 3.2 0.00 0.00 0.00 91 1010.1
20260510043323 10 95 3.2 3.2 0.00 0.00 0.00 91 1010.2
20260510042822 11 87 3.2 4.8 0.00 0.00 0.00 90 1010.2
20260510042317 11 74 3.2 4.8 0.00 0.00 0.00 90 1010.3
20260510041814 11 352 0.0 1.6 0.00 0.00 0.00 90 1010.1
20260510041311 11 21 0.0 3.2 0.00 0.00 0.00 89 1010.4
20260510040809 11 246 0.0 3.2 0.00 0.00 0.00 89 1010.3
20260510040305 11 173 0.0 3.2 0.00 0.00 0.00 91 1010.2
20260510035800 11 321 0.0 3.2 0.00 0.00 0.00 90 1010.2
20260510035256 11 244 1.6 3.2 0.00 0.00 0.00 90 1010.3
20260510034752 11 246 0.0 1.6 0.00 0.00 0.00 88 1010.2
20260510034250 11 123 3.2 3.2 0.00 0.00 0.00 88 1010.3
20260510033746 11 145 0.0 3.2 0.00 0.00 0.00 87 1010.3
20260510033244 11 297 3.2 3.2 0.00 0.00 0.00 87 1009.9
20260510032740 12 140 0.0 3.2 0.00 0.00 0.00 85 1010.0
20260510032236 12 129 0.0 1.6 0.00 0.00 0.00 83 1010.1
20260510031732 12 139 3.2 3.2 0.00 0.00 0.00 82 1010.1
20260510031227 13 299 0.0 3.2 0.00 0.00 0.00 83 1010.1
20260510030727 12 284 1.6 3.2 0.00 0.00 0.00 86 1010.1
20260510030225 12 332 3.2 3.2 0.00 0.00 0.00 86 1010.0
20260510025722 12 201 3.2 3.2 0.00 0.00 0.00 84 1010.2
20260510025219 12 72 3.2 3.2 0.00 0.00 0.00 85 1010.0
20260510024716 12 0 3.2 6.4 0.00 0.00 0.00 83 1010.2
20260510024213 13 86 1.6 4.8 0.00 0.00 0.00 82 1010.0
20260510023708 13 76 4.8 4.8 0.00 0.00 0.00 79 1009.8
20260510023206 13 129 0.0 1.6 0.00 0.00 0.00 77 1009.8
20260510022701 14 243 3.2 3.2 0.00 0.00 0.00 76 1009.9
20260510022156 15 280 3.2 3.2 0.00 0.00 0.00 74 1009.9
20260510021651 15 32 0.0 0.0 0.00 0.00 0.00 74 1009.6
20260510021149 15 30 3.2 3.2 0.00 0.00 0.00 74 1009.7
20260510020643 15 356 1.6 3.2 0.00 0.00 0.00 73 1009.5
20260510020139 15 31 3.2 3.2 0.00 0.00 0.00 73 1009.6
20260510015635 15 19 1.6 3.2 0.00 0.00 0.00 71 1009.3
20260510015132 15 321 0.0 1.6 0.00 0.00 0.00 71 1009.3
20260510014627 16 347 0.0 3.2 0.00 0.00 0.00 69 1009.4
20260510014125 16 322 0.0 0.0 0.00 0.00 0.00 68 1009.5
20260510013625 16 301 3.2 3.2 0.00 0.00 0.00 68 1009.4
20260510013121 16 269 3.2 3.2 0.00 0.00 0.00 68 1009.4
20260510012620 16 283 1.6 1.6 0.00 0.00 0.00 69 1009.2
20260510012117 16 309 0.0 0.0 0.00 0.00 0.00 69 1008.9
20260510011616 15 309 0.0 1.6 0.00 0.00 0.00 70 1008.8
20260510011112 16 240 0.0 0.0 0.00 0.00 0.00 69 1008.9
20260510010609 16 214 1.6 3.2 0.00 0.00 0.00 68 1008.7
20260510010106 16 220 1.6 3.2 0.00 0.00 0.00 67 1008.7
20260510005601 16 218 0.0 0.0 0.00 0.00 0.00 67 1008.5
20260510005059 16 269 0.0 1.6 0.00 0.00 0.00 67 1008.5
20260510004557 16 200 0.0 3.2 0.00 0.00 0.00 66 1008.3
20260510004055 17 89 0.0 1.6 0.00 0.00 0.00 65 1008.4
20260510003551 17 55 0.0 3.2 0.00 0.00 0.00 64 1008.4
20260510003047 17 336 0.0 1.6 0.00 0.00 0.00 64 1008.4
20260510002542 18 23 1.6 3.2 0.00 0.00 0.00 62 1008.4
20260510002040 18 73 3.2 6.4 0.00 0.00 0.00 60 1008.2
20260510001537 18 125 1.6 3.2 0.00 0.00 0.00 60 1008.2
20260510001035 18 94 1.6 3.2 0.00 0.00 0.00 59 1008.3
20260510000530 19 89 1.6 3.2 0.00 0.00 0.00 58 1008.0
20260510000027 20 48 1.6 3.2 0.00 0.00 0.00 56 1008.2
20260509235524 21 50 0.0 1.6 0.00 0.00 0.00 54 1008.4
20260509235021 21 22 0.0 0.0 0.00 0.00 0.00 50 1008.1
20260509234517 21 297 0.0 0.0 0.00 0.00 0.00 49 1008.0
20260509234015 21 293 0.0 3.2 0.00 0.00 0.00 49 1008.3
20260509233512 22 326 0.0 3.2 0.00 0.00 0.00 48 1008.2
20260509233009 22 29 0.0 1.6 0.00 0.00 0.00 47 1008.2
20260509232506 23 11 0.0 1.6 0.00 0.00 0.00 44 1008.0
20260509232002 25 242 0.0 0.0 0.00 0.00 0.00 44 1008.2
20260509231459 24 259 1.6 1.6 0.00 0.00 0.00 42 1008.0
20260509230956 24 288 0.0 1.6 0.00 0.00 0.00 44 1008.0
20260509230453 23 284 0.0 1.6 0.00 0.00 0.00 45 1008.0
20260509225949 23 234 1.6 6.4 0.00 0.00 0.00 45 1008.1
20260509225446 23 198 3.2 4.8 0.00 0.00 0.00 45 1007.9
20260509224942 23 213 3.2 4.8 0.00 0.00 0.00 46 1008.0
20260509224437 23 256 0.0 4.8 0.00 0.00 0.00 45 1008.1
20260509223935 23 195 1.6 4.8 0.00 0.00 0.00 47 1008.2
20260509223431 23 198 6.4 6.4 0.00 0.00 0.00 47 1008.0
20260509222929 23 222 3.2 6.4 0.00 0.00 0.00 45 1007.8
20260509222423 23 211 3.2 4.8 0.00 0.00 0.00 46 1008.1
20260509221919 22 234 6.4 6.4 0.00 0.00 0.00 48 1008.1
20260509221416 22 204 3.2 3.2 0.00 0.00 0.00 49 1008.2
20260509220912 22 242 4.8 9.7 0.00 0.00 0.00 48 1008.1
20260509220408 22 210 3.2 8.0 0.00 0.00 0.00 50 1008.1
20260509215904 22 202 6.4 9.7 0.00 0.00 0.00 49 1008.2
20260509215400 22 185 3.2 11.3 0.00 0.00 0.00 50 1008.0
20260509214858 22 206 8.0 8.0 0.00 0.00 0.00 49 1007.9
20260509214355 22 211 6.4 8.0 0.00 0.00 0.00 49 1008.0
20260509213852 22 186 4.8 6.4 0.00 0.00 0.00 49 1007.9
20260509213347 22 243 3.2 3.2 0.00 0.00 0.00 49 1007.9
20260509212845 22 308 1.6 1.6 0.00 0.00 0.00 51 1008.0
20260509212342 21 103 0.0 3.2 0.00 0.00 0.00 51 1008.0
20260509211838 22 112 3.2 3.2 0.00 0.00 0.00 49 1007.8
20260509211334 22 321 0.0 1.6 0.00 0.00 0.00 50 1008.0
20260509210831 22 193 0.0 0.0 0.00 0.00 0.00 53 1007.9
20260509210329 21 193 0.0 0.0 0.00 0.00 0.00 49 1007.8
20260509205828 21 253 4.8 4.8 0.00 0.00 0.00 52 1007.9
20260509205323 21 140 3.2 4.8 0.00 0.00 0.00 50 1008.0
20260509204820 21 181 3.2 6.4 0.00 0.00 0.00 53 1008.1
20260509204316 21 201 6.4 8.0 0.00 0.00 0.00 53 1008.1
20260509203812 21 166 4.8 6.4 0.00 0.00 0.00 53 1008.0
20260509203309 21 259 6.4 6.4 0.00 0.00 0.00 51 1008.0
20260509202806 21 231 1.6 3.2 0.00 0.00 0.00 51 1007.9
20260509202305 21 158 3.2 4.8 0.00 0.00 0.00 51 1007.8
20260509201801 21 130 3.2 6.4 0.00 0.00 0.00 51 1008.1
20260509201258 21 192 1.6 6.4 0.00 0.00 0.00 49 1008.1
20260509200754 21 206 3.2 4.8 0.00 0.00 0.00 52 1008.1
20260509200249 21 180 1.6 8.0 0.00 0.00 0.00 52 1008.0
20260509195746 21 208 9.7 9.7 0.00 0.00 0.00 49 1008.1
20260509195241 21 156 6.4 8.0 0.00 0.00 0.00 51 1008.4
20260509194736 22 174 4.8 14.5 0.00 0.00 0.00 48 1008.3
20260509194232 22 306 0.0 3.2 0.00 0.00 0.00 49 1008.2
20260509193730 22 188 0.0 6.4 0.00 0.00 0.00 46 1008.2
20260509193229 21 222 8.0 9.7 0.00 0.00 0.00 49 1008.2
20260509192725 21 169 3.2 12.9 0.00 0.00 0.00 50 1008.1
20260509192220 23 183 6.4 14.5 0.00 0.00 0.00 51 1008.3
20260509191716 23 215 6.4 9.7 0.00 0.00 0.00 46 1008.4
20260509191213 22 212 6.4 9.7 0.00 0.00 0.00 47 1008.4
20260509190709 22 200 9.7 11.3 0.00 0.00 0.00 51 1008.5
20260509190206 22 84 9.7 14.5 0.00 0.00 0.00 45 1008.7
20260509185704 22 200 0.0 3.2 0.00 0.00 0.00 49 1008.6
20260509185159 22 304 3.2 6.4 0.00 0.00 0.00 49 1008.8
20260509184657 22 267 0.0 9.7 0.00 0.00 0.00 46 1008.8
20260509184154 22 130 0.0 8.0 0.00 0.00 0.00 49 1009.0
20260509183651 21 46 4.8 9.7 0.00 0.00 0.00 47 1008.9
20260509183146 21 197 8.0 9.7 0.00 0.00 0.00 50 1009.0
20260509182642 21 193 8.0 9.7 0.00 0.00 0.00 48 1008.9
20260509182139 21 224 6.4 9.7 0.00 0.00 0.00 47 1008.9
20260509181637 20 196 6.4 8.0 0.00 0.00 0.00 45 1009.2
20260509181135 20 148 3.2 6.4 0.00 0.00 0.00 49 1009.3
20260509180631 20 151 8.0 9.7 0.00 0.00 0.00 47 1009.6
20260509180127 20 79 9.7 14.5 0.00 0.00 0.00 44 1009.7
20260509175623 20 76 4.8 9.7 0.00 0.00 0.00 51 1009.8
20260509175120 20 118 4.8 8.0 0.00 0.00 0.00 50 1009.6
20260509174616 19 126 4.8 6.4 0.00 0.00 0.00 54 1009.5
20260509174111 19 129 6.4 9.7 0.00 0.00 0.00 51 1009.8
20260509173607 19 57 1.6 8.0 0.00 0.00 0.00 52 1010.1
20260509173103 19 104 6.4 6.4 0.00 0.00 0.00 53 1010.1
20260509172600 19 149 3.2 9.7 0.00 0.00 0.00 52 1010.3
20260509172056 19 98 4.8 6.4 0.00 0.00 0.00 51 1009.9
20260509171552 19 150 3.2 6.4 0.00 0.00 0.00 50 1010.4
20260509171048 19 205 4.8 6.4 0.00 0.00 0.00 51 1010.5
20260509170544 18 89 0.0 3.2 0.00 0.00 0.00 54 1010.6
20260509170041 18 148 3.2 8.0 0.00 0.00 0.00 50 1010.7
20260509165539 18 144 4.8 8.0 0.00 0.00 0.00 52 1010.8
20260509165035 19 102 4.8 8.0 0.00 0.00 0.00 50 1010.5
20260509164531 20 62 3.2 11.3 0.00 0.00 0.00 48 1010.2
20260509164027 20 142 6.4 9.7 0.00 0.00 0.00 49 1010.3
20260509163525 20 348 0.0 6.4 0.00 0.00 0.00 50 1010.1
20260509163020 19 82 9.7 16.1 0.00 0.00 0.00 51 1010.0
20260509162518 20 83 11.3 12.9 0.00 0.00 0.00 51 1009.9
20260509162013 20 45 11.3 14.5 0.00 0.00 0.00 50 1010.1
20260509161510 20 118 8.0 11.3 0.00 0.00 0.00 51 1010.1
20260509161005 20 15 1.6 11.3 0.00 0.00 0.00 51 1010.1
20260509160501 20 79 4.8 8.0 0.00 0.00 0.00 54 1010.2
20260509155956 19 33 8.0 9.7 0.00 0.00 0.00 52 1010.3
20260509155453 19 290 4.8 11.3 0.00 0.00 0.00 48 1010.5
20260509154949 20 1 1.6 9.7 0.00 0.00 0.00 52 1010.4
20260509154445 19 111 8.0 8.0 0.00 0.00 0.00 53 1010.2
20260509153943 19 352 3.2 8.0 0.00 0.00 0.00 50 1010.5
20260509153439 19 104 6.4 8.0 0.00 0.00 0.00 49 1010.1
20260509152937 18 353 3.2 9.7 0.00 0.00 0.00 51 1010.3
20260509152432 18 346 1.6 6.4 0.00 0.00 0.00 52 1010.5
20260509151929 19 53 4.8 9.7 0.00 0.00 0.00 52 1010.4
20260509151425 18 57 3.2 9.7 0.00 0.00 0.00 54 1010.5
20260509150924 18 82 6.4 11.3 0.00 0.00 0.00 49 1010.5
20260509150421 18 45 0.0 4.8 0.00 0.00 0.00 50 1010.6
20260509145919 19 76 8.0 12.9 0.00 0.00 0.00 50 1010.6
20260509145419 18 224 4.8 6.4 0.00 0.00 0.00 54 1010.7
20260509144915 18 202 4.8 6.4 0.00 0.00 0.00 53 1010.8
20260509144412 18 77 4.8 4.8 0.00 0.00 0.00 54 1010.8
20260509143909 17 191 0.0 4.8 0.00 0.00 0.00 55 1011.0
20260509143407 17 219 3.2 3.2 0.00 0.00 0.00 55 1011.0
20260509142902 16 54 1.6 3.2 0.00 0.00 0.00 61 1010.8
20260509142359 16 134 3.2 6.4 0.00 0.00 0.00 58 1010.9
20260509141854 16 38 0.0 1.6 0.00 0.00 0.00 60 1011.2
20260509141352 16 138 0.0 4.8 0.00 0.00 0.00 61 1010.9
20260509140848 16 220 6.4 11.3 0.00 0.00 0.00 62 1011.2
20260509140345 15 161 6.4 9.7 0.00 0.00 0.00 59 1011.0
20260509135843 15 206 4.8 8.0 0.00 0.00 0.00 60 1010.6
20260509135341 15 184 3.2 4.8 0.00 0.00 0.00 58 1010.5
20260509134838 15 188 3.2 4.8 0.00 0.00 0.00 61 1010.6
20260509134335 15 179 3.2 6.4 0.00 0.00 0.00 60 1010.7
20260509133831 15 142 4.8 6.4 0.00 0.00 0.00 59 1010.7
20260509133328 15 140 1.6 4.8 0.00 0.00 0.00 58 1010.7
20260509132827 15 182 3.2 3.2 0.00 0.00 0.00 60 1010.6
20260509132325 15 134 4.8 6.4 0.00 0.00 0.00 58 1010.8
20260509131822 15 86 4.8 4.8 0.00 0.00 0.00 62 1010.5
20260509131319 15 190 3.2 8.0 0.00 0.00 0.00 60 1010.9
20260509130815 15 186 4.8 6.4 0.00 0.00 0.00 59 1010.7
20260509130311 15 192 6.4 6.4 0.00 0.00 0.00 63 1010.9
20260509125808 15 194 4.8 9.7 0.00 0.00 0.00 62 1010.8
20260509125307 14 179 3.2 8.0 0.00 0.00 0.00 65 1011.1
20260509124801 14 224 3.2 6.4 0.00 0.00 0.00 64 1010.9
20260509124257 14 177 3.2 6.4 0.00 0.00 0.00 65 1010.6
20260509123755 14 151 3.2 6.4 0.00 0.00 0.00 68 1010.8
20260509123252 14 144 3.2 4.8 0.00 0.00 0.00 67 1010.8
20260509122748 13 109 3.2 3.2 0.00 0.00 0.00 68 1010.4
20260509122245 13 68 3.2 3.2 0.00 0.00 0.00 69 1010.5
20260509121742 13 133 3.2 3.2 0.00 0.00 0.00 66 1011.0
20260509121239 13 135 0.0 3.2 0.00 0.00 0.00 70 1010.9
20260509120737 13 213 0.0 3.2 0.00 0.00 0.00 67 1011.0
20260509120235 13 119 3.2 3.2 0.00 0.00 0.00 70 1011.0
20260509115733 13 182 3.2 8.0 0.00 0.00 0.00 69 1010.9
20260509115229 13 154 4.8 6.4 0.00 0.00 0.00 70 1010.7
20260509114728 13 84 4.8 6.4 0.00 0.00 0.00 70 1010.6
20260509114226 13 73 1.6 4.8 0.00 0.00 0.00 71 1010.6
20260509113725 13 137 3.2 3.2 0.00 0.00 0.00 71 1010.8
20260509113221 13 78 1.6 4.8 0.00 0.00 0.00 71 1010.8
20260509112718 12 84 3.2 4.8 0.00 0.00 0.00 70 1010.6
20260509112215 12 89 0.0 3.2 0.00 0.00 0.00 72 1010.6
20260509111713 12 61 1.6 3.2 0.00 0.00 0.00 74 1010.7
20260509111209 12 46 3.2 4.8 0.00 0.00 0.00 76 1010.3
20260509110707 11 33 3.2 4.8 0.00 0.00 0.00 76 1010.4
20260509110203 11 50 3.2 4.8 0.00 0.00 0.00 77 1010.5
20260509105701 11 27 4.8 6.4 0.00 0.00 0.00 76 1010.3
20260509105158 11 338 1.6 3.2 0.00 0.00 0.00 78 1010.4
20260509104655 11 128 0.0 3.2 0.00 0.00 0.00 75 1010.1
20260509104152 11 190 1.6 4.8 0.00 0.00 0.00 68 1010.1
20260509103650 11 96 4.8 4.8 0.00 0.00 0.00 67 1010.3
20260509103147 11 31 3.2 4.8 0.00 0.00 0.00 70 1010.3
20260509102645 11 47 4.8 4.8 0.00 0.00 0.00 66 1010.3
20260509102142 11 96 3.2 4.8 0.00 0.00 0.00 66 1010.4
20260509101638 11 50 0.0 3.2 0.00 0.00 0.00 66 1010.0
20260509101135 11 70 3.2 3.2 0.00 0.00 0.00 68 1010.2
20260509100632 11 19 1.6 4.8 0.00 0.00 0.00 66 1010.0
20260509100130 11 62 0.0 3.2 0.00 0.00 0.00 65 1010.0
20260509095626 11 84 3.2 4.8 0.00 0.00 0.00 66 1010.0
20260509095124 11 70 3.2 3.2 0.00 0.00 0.00 66 1010.0
20260509094620 11 71 1.6 3.2 0.00 0.00 0.00 64 1010.1
20260509094117 12 138 0.0 3.2 0.00 0.00 0.00 64 1010.0
20260509093616 12 162 1.6 4.8 0.00 0.00 0.00 64 1010.1
20260509093112 12 111 1.6 4.8 0.00 0.00 0.00 64 1010.1
20260509092610 12 154 3.2 4.8 0.00 0.00 0.00 65 1010.1
20260509092108 12 173 3.2 3.2 0.00 0.00 0.00 65 1010.1
20260509091606 12 175 3.2 4.8 0.00 0.00 0.00 65 1010.0
20260509091102 12 167 3.2 4.8 0.00 0.00 0.00 65 1010.2
20260509090559 12 205 3.2 4.8 0.00 0.00 0.00 65 1010.0
20260509090057 12 192 3.2 4.8 0.00 0.00 0.00 66 1010.2
20260509085554 12 172 3.2 4.8 0.00 0.00 0.00 65 1010.1
20260509085050 12 181 3.2 4.8 0.00 0.00 0.00 65 1010.3
20260509084547 12 182 3.2 4.8 0.00 0.00 0.00 65 1010.2
20260509084044 12 158 0.0 3.2 0.00 0.00 0.00 63 1010.2
20260509083542 12 180 3.2 4.8 0.00 0.00 0.00 64 1010.4
20260509083038 12 176 3.2 6.4 0.00 0.00 0.00 62 1010.4
20260509082536 12 154 3.2 4.8 0.00 0.00 0.00 62 1010.5
20260509082033 12 164 3.2 3.2 0.00 0.00 0.00 62 1010.3
20260509081530 12 136 1.6 4.8 0.00 0.00 0.00 62 1010.4
20260509081026 12 195 1.6 3.2 0.00 0.00 0.00 63 1010.4
20260509080525 12 181 3.2 6.4 0.00 0.00 0.00 62 1010.3
20260509080022 12 191 3.2 4.8 0.00 0.00 0.00 62 1010.3
20260509075519 12 194 3.2 3.2 0.00 0.00 0.00 62 1010.3
20260509075017 12 207 3.2 6.4 0.00 0.00 0.00 61 1010.3
20260509074514 12 205 3.2 4.8 0.00 0.00 0.00 62 1010.3
20260509074010 12 202 4.8 4.8 0.00 0.00 0.00 62 1010.4
20260509073507 12 184 3.2 4.8 0.00 0.00 0.00 64 1010.5
20260509073003 12 189 3.2 4.8 0.00 0.00 0.00 63 1010.5
20260509072500 12 180 3.2 6.4 0.00 0.00 0.00 64 1010.4
20260509071957 12 171 4.8 8.0 0.00 0.00 0.00 64 1010.3